[[{"header":{"parameterUnit":"m.s-1","parameterCategory":1,"la1":30.2991,"la2":30.254,"lo1":-89.0895,"lo2":-89.0444,"dy":0.0017,"dx":0.0017,"nx":28,"ny":28,"refTime":"2025-01-10T09:00:00:Z","depth":0,"parameterNumber":2,"parameterNumberName":"U-component_of_WINDS"},"data":[0,0,0,0,0,0,0,0,0,0,0,0,0,0,0,0,0,0,0,0,0,0,0,0,0,0,0,0,0,0,0,0,0,0,0,0,0,0,0,0,0,0,0,0,0,0,0,0,0,0,0,0,0,0,0,0,0,0,4.8184,4.8185,0,4.8284,4.8286,4.8287,4.8235,4.8233,4.823,4.8227,4.8329,4.8334,4.8339,0,0,0,0,0,0,0,0,0,0,0,0,0,4.7947,4.7952,4.8184,4.8185,4.8186,4.8284,4.8286,4.8287,4.8236,4.8232,4.8229,4.8226,4.8327,4.8333,4.8339,0,0,0,0,0,0,0,0,0,0,0,0,0,4.8049,4.7953,4.8183,4.8172,4.8173,4.8284,4.8286,4.8287,4.8236,4.8232,4.8228,4.8225,4.8325,4.8333,4.834,4.8468,0,0,4.8364,4.8367,0,0,0,0,0,0,0,0,4.8043,4.8058,4.8173,4.8173,4.8174,4.8243,4.8239,4.8348,4.8237,4.8212,4.8227,4.8223,4.8304,4.8313,4.834,4.8473,4.8477,4.8365,4.8369,4.8373,4.8375,0,0,0,0,0,0,0,4.8036,4.8053,4.8223,4.8175,4.8175,4.8163,4.8173,4.826,4.8279,4.8214,4.8211,4.8223,4.8303,4.8333,4.8342,4.8479,4.8365,4.8371,4.8376,4.8379,4.8723,4.8727,0,0,0,0,0,0,4.803,4.8048,4.822,4.8226,4.8097,4.817,4.8181,4.8225,4.8278,4.8282,4.8227,4.822,4.8322,4.8333,4.8346,4.85,4.8373,4.838,4.8384,4.8719,4.8724,4.8729,0,0,0,0,0,0,4.8025,4.8046,4.8216,4.8136,4.8157,4.8178,4.8228,4.8229,4.8259,4.8287,4.829,4.8254,4.8319,4.8335,4.8439,4.8503,4.8383,4.8391,4.8713,4.872,4.8727,4.8809,0,0,0,0,0,0,4.8018,4.8044,4.8093,4.8138,4.8162,4.8308,4.8232,4.8234,4.8273,4.8266,4.8314,4.8318,4.8317,4.8427,4.8446,4.8511,4.8397,4.8708,4.8716,4.8724,4.88,4.8818,4.8832,0,0,0,0,0,4.801,4.8111,4.8096,4.8117,4.8223,4.8311,4.8325,4.8323,4.8278,4.8327,4.8346,4.8316,4.8493,4.8438,4.8459,4.8528,4.8704,4.8714,4.8724,4.8793,4.8814,4.8832,0,0,0,0,0,0,4.8072,4.8117,4.81,4.8218,4.8262,4.8302,4.8364,4.8344,4.8401,4.8392,4.8386,4.8397,4.8506,4.8527,4.8465,4.8655,4.8591,4.8606,4.8637,4.8657,4.8673,4.8665,4.8403,0,0,0,0,0,4.81,4.8168,4.8203,4.8305,4.8327,4.8343,4.8381,4.8376,4.842,4.8438,4.8464,4.8508,4.8573,4.8616,4.8678,4.8804,4.8814,4.8861,4.8877,4.889,4.8902,4.8972,4.8994,4.8762,4.8762,4.8762,0,0,4.8157,4.819,4.8233,4.8318,4.8351,4.8422,4.8358,4.8436,4.8489,4.8449,4.8549,4.8571,4.8619,4.8735,4.8787,4.8756,4.8969,4.8903,4.8913,4.8918,4.8985,4.9007,4.9026,4.8769,4.8768,4.8767,0,0,4.8298,4.8329,4.8418,4.8453,4.8504,4.8514,4.8535,4.858,4.8593,4.8694,4.8666,4.8729,4.8842,4.8878,4.8912,4.907,4.9045,4.909,4.9173,4.9241,4.9259,4.9275,4.9333,4.9353,4.9103,4.9103,4.9103,0,4.8362,4.8469,4.8466,4.8547,4.8585,4.8555,4.8645,4.8679,4.8747,4.8775,4.8739,4.8882,4.8912,4.9037,4.9076,4.9104,4.9129,4.9084,4.9257,4.9273,4.9288,4.9343,4.9364,4.9108,4.9108,4.9107,4.9107,0,4.8546,4.8621,4.8687,4.8755,4.8801,4.8886,4.8897,4.8944,4.8935,4.8949,4.9053,4.9089,4.9159,4.9188,4.918,4.9313,4.9292,4.9257,4.9193,4.9316,4.9367,4.9388,4.9116,4.9114,4.9112,4.9111,0,0,4.8727,4.8795,4.8819,4.8851,4.8906,4.8964,4.9049,4.9118,4.9159,4.9208,4.9279,4.9376,4.9345,4.9383,4.9379,4.9439,4.9564,4.9397,4.9398,4.9427,4.9714,4.974,4.9764,4.9548,4.9552,4.9555,4.971,0,4.8873,4.9021,4.9022,4.9158,4.9228,4.9201,4.9275,4.9318,4.9333,4.9395,4.9412,4.9482,4.9435,4.9458,4.9516,4.9536,4.9621,4.9525,4.9615,4.9618,4.9603,4.9791,4.9818,4.9963,4.973,4.9733,4.9736,0,4.9061,4.9118,4.9262,4.931,4.9339,4.9406,4.947,4.9529,4.9578,4.9585,4.9629,4.9617,4.9704,4.9638,4.9758,4.9692,4.9729,4.9745,4.9751,4.9759,4.9684,4.9805,5.0008,5.003,4.9767,4.9765,4.9763,0,4.918,4.9293,4.9394,4.9422,4.9479,4.9527,4.9553,4.9598,4.964,4.9696,4.9724,4.979,4.9826,4.9877,4.9883,4.9834,5.0004,4.9938,5.0013,5.0013,5.005,5.0047,5.0263,5.0074,5.0073,5.0073,5.0072,0,4.9342,4.9432,4.9448,4.951,4.961,4.9611,4.971,4.9732,4.9773,4.9839,4.982,4.9883,4.9887,4.9952,4.9957,5.0056,5.0073,5.0081,5.0082,5.0083,5.0082,5.0107,5.0097,5.0079,5.0077,5.0076,5.0075,0,4.9491,4.9506,4.9615,4.9661,4.9675,4.9747,4.9787,4.9847,4.9862,4.9946,4.9966,4.999,5.0065,5.0077,5.0165,5.0169,5.0288,5.0278,5.0272,5.0271,5.0346,5.0339,5.0584,5.0617,5.0406,5.0408,5.041,0,4.9594,4.9662,4.9717,4.9761,4.979,4.986,4.9904,4.9908,4.9954,5.0016,5.0069,5.0143,5.0202,5.0324,5.0349,5.0417,5.0408,5.049,5.0418,5.0418,5.041,5.0406,5.0414,5.0503,5.0506,5.0508,5.0509,0,4.9775,4.9779,4.9843,4.9911,4.9964,5.0017,5.0067,5.0103,5.0114,5.0167,5.0245,5.0291,5.0383,5.0457,5.0524,5.0551,5.0533,5.0532,5.0553,5.0555,5.0549,5.0554,5.031,5.0526,5.0524,5.0523,5.0522,5.0521,4.9904,4.9965,5.0013,5.0086,5.0124,5.0172,5.0231,5.0255,5.032,5.0395,5.0393,5.0479,5.0527,5.0617,5.0649,5.0716,5.069,5.072,5.0728,5.0735,5.0743,5.0539,5.0729,5.0728,5.0728,5.0727,5.0727,0,5.0085,5.0116,5.0182,5.0254,5.0311,5.029,5.0345,5.0394,5.047,5.0517,5.0576,5.0667,5.0739,5.0771,5.0842,5.089,5.0883,5.0908,5.0905,5.0912,5.0762,5.0737,5.0913,5.0913,5.0913,5.0913,5.0913,5.0913,5.0186,5.0287,5.0298,5.0419,5.0449,5.0533,5.0567,5.0611,5.0649,5.0751,5.0811,5.0832,5.0873,5.0948,5.1013,5.1021,5.1048,5.1078,5.1081,5.0941,5.0922,5.0904,5.0881,5.1084,5.1084,5.1225,5.1227,5.1228]},{"header":{"parameterUnit":"m.s-1","parameterCategory":1,"la1":30.2991,"la2":30.254,"lo1":-89.0895,"lo2":-89.0444,"dy":0.0017,"dx":0.0017,"nx":28,"ny":28,"refTime":"2025-01-10T09:00:00:Z","depth":0,"parameterNumber":3,"parameterNumberName":"V-component_of_WINDS"},"data":[0,0,0,0,0,0,0,0,0,0,0,0,0,0,0,0,0,0,0,0,0,0,0,0,0,0,0,0,0,0,0,0,0,0,0,0,0,0,0,0,0,0,0,0,0,0,0,0,0,0,0,0,0,0,0,0,0,0,-6.1567,-6.1569,0,-6.1761,-6.1763,-6.1765,-6.1751,-6.1748,-6.1746,-6.1743,-6.1939,-6.1947,-6.1955,0,0,0,0,0,0,0,0,0,0,0,0,0,-6.1185,-6.1192,-6.1567,-6.1569,-6.1572,-6.176,-6.1763,-6.1766,-6.1752,-6.1748,-6.1745,-6.1742,-6.1937,-6.1946,-6.1956,0,0,0,0,0,0,0,0,0,0,0,0,0,-6.1362,-6.1194,-6.1567,-6.1588,-6.1591,-6.176,-6.1763,-6.1766,-6.1753,-6.1748,-6.1744,-6.174,-6.1934,-6.1945,-6.1957,-6.2116,0,0,-6.1993,-6.1998,0,0,0,0,0,0,0,0,-6.1352,-6.1376,-6.1582,-6.1587,-6.1591,-6.1727,-6.17,-6.1884,-6.1754,-6.1691,-6.1743,-6.1738,-6.1872,-6.1889,-6.1935,-6.2125,-6.2134,-6.1994,-6.2001,-6.2006,-6.201,0,0,0,0,0,0,0,-6.1339,-6.1367,-6.1644,-6.1585,-6.1591,-6.1587,-6.1608,-6.1735,-6.1803,-6.1696,-6.1696,-6.1719,-6.1874,-6.1923,-6.1939,-6.2137,-6.1994,-6.2004,-6.2012,-6.2016,-6.247,-6.2474,0,0,0,0,0,0,-6.1322,-6.1357,-6.1637,-6.1649,-6.1458,-6.1598,-6.162,-6.1688,-6.1802,-6.1815,-6.1723,-6.1718,-6.1905,-6.1925,-6.1946,-6.2141,-6.2006,-6.2017,-6.2024,-6.2465,-6.2471,-6.2476,0,0,0,0,0,0,-6.1314,-6.1348,-6.163,-6.1503,-6.1539,-6.1609,-6.1685,-6.1694,-6.1743,-6.1822,-6.1834,-6.1761,-6.1902,-6.1929,-6.2075,-6.2147,-6.2023,-6.2034,-6.2459,-6.2467,-6.2473,-6.2532,0,0,0,0,0,0,-6.1303,-6.1345,-6.1406,-6.1505,-6.1546,-6.1755,-6.1689,-6.1701,-6.1764,-6.176,-6.1861,-6.1873,-6.1901,-6.2057,-6.2086,-6.2162,-6.2043,-6.2453,-6.2462,-6.2471,-6.2523,-6.254,-6.2554,0,0,0,0,0,-6.129,-6.1414,-6.1409,-6.1443,-6.1624,-6.176,-6.1783,-6.1813,-6.177,-6.1832,-6.1883,-6.187,-6.2135,-6.2072,-6.2105,-6.2185,-6.2448,-6.246,-6.247,-6.2517,-6.2537,-6.2554,0,0,0,0,0,0,-6.1321,-6.1427,-6.1423,-6.1583,-6.1663,-6.1757,-6.1836,-6.1833,-6.1926,-6.1918,-6.1951,-6.1974,-6.212,-6.2167,-6.2095,-6.2346,-6.2286,-6.2304,-6.231,-6.233,-6.2345,-6.233,-6.2053,0,0,0,0,0,-6.1347,-6.1449,-6.1536,-6.1668,-6.1709,-6.1766,-6.1826,-6.1842,-6.1926,-6.1959,-6.202,-6.2101,-6.2203,-6.2269,-6.2366,-6.253,-6.2552,-6.2602,-6.2617,-6.2629,-6.2645,-6.2736,-6.2759,-6.2512,-6.2512,-6.2512,0,0,-6.1401,-6.1471,-6.1533,-6.1677,-6.174,-6.1844,-6.1794,-6.1906,-6.1984,-6.1976,-6.2117,-6.2165,-6.2257,-6.2413,-6.2485,-6.2457,-6.2718,-6.2643,-6.2653,-6.2661,-6.275,-6.2773,-6.2793,-6.252,-6.2519,-6.2517,0,0,-6.1552,-6.1616,-6.1734,-6.1799,-6.1896,-6.1934,-6.1962,-6.2058,-6.2089,-6.2232,-6.2228,-6.2321,-6.2495,-6.2562,-6.2618,-6.2797,-6.2788,-6.2828,-6.2908,-6.2996,-6.3016,-6.3033,-6.3097,-6.312,-6.2843,-6.2843,-6.2843,0,-6.1607,-6.1764,-6.1795,-6.1909,-6.1972,-6.1971,-6.2091,-6.2152,-6.2276,-6.232,-6.2287,-6.2506,-6.2568,-6.274,-6.2784,-6.2829,-6.2863,-6.2816,-6.3011,-6.3028,-6.3045,-6.3107,-6.3131,-6.2847,-6.2846,-6.2846,-6.2846,0,-6.1827,-6.1936,-6.202,-6.2141,-6.2213,-6.233,-6.2378,-6.2448,-6.2459,-6.25,-6.2645,-6.272,-6.2833,-6.2875,-6.2886,-6.3049,-6.3029,-6.3003,-6.2944,-6.3072,-6.3131,-6.3154,-6.2853,-6.2851,-6.285,-6.2849,0,0,-6.2002,-6.214,-6.217,-6.2225,-6.2333,-6.2418,-6.2535,-6.2646,-6.2706,-6.2792,-6.2891,-6.3039,-6.3016,-6.308,-6.3099,-6.3177,-6.3314,-6.3142,-6.3144,-6.3171,-6.3499,-6.3518,-6.3545,-6.331,-6.3314,-6.3318,-6.3491,0,-6.2165,-6.2372,-6.2404,-6.2586,-6.2688,-6.2689,-6.279,-6.2867,-6.2909,-6.3001,-6.3047,-6.3152,-6.3114,-6.3153,-6.323,-6.3281,-6.3381,-6.3269,-6.3402,-6.3406,-6.3379,-6.3575,-6.3595,-6.3755,-6.3514,-6.3518,-6.3521,0,-6.2382,-6.2475,-6.2668,-6.2763,-6.2807,-6.2897,-6.3003,-6.3091,-6.3179,-6.3204,-6.3277,-6.3287,-6.3408,-6.3343,-6.3511,-6.3434,-6.3491,-6.3524,-6.3531,-6.3545,-6.3471,-6.3594,-6.3807,-6.3831,-6.3557,-6.3554,-6.3552,0,-6.2491,-6.2665,-6.2803,-6.285,-6.2964,-6.3028,-6.3079,-6.3162,-6.3228,-6.332,-6.3363,-6.3468,-6.3525,-6.3606,-6.3644,-6.3594,-6.381,-6.3748,-6.3834,-6.3833,-6.3879,-6.3875,-6.4104,-6.3915,-6.3915,-6.3914,-6.3914,0,-6.267,-6.2788,-6.2853,-6.2938,-6.3071,-6.3106,-6.3236,-6.3285,-6.3359,-6.3454,-6.3461,-6.3549,-6.3594,-6.3689,-6.3719,-6.3854,-6.3879,-6.3903,-6.391,-6.3903,-6.39,-6.394,-6.393,-6.3921,-6.3919,-6.3918,-6.3917,0,-6.2814,-6.2863,-6.3013,-6.311,-6.3137,-6.323,-6.3313,-6.3395,-6.3437,-6.3556,-6.3586,-6.3652,-6.3764,-6.381,-6.3948,-6.3968,-6.4123,-6.4121,-6.4094,-6.4096,-6.4179,-6.4171,-6.4441,-6.4479,-6.4265,-6.4267,-6.4269,0,-6.2925,-6.3016,-6.3122,-6.3186,-6.3239,-6.3342,-6.3409,-6.3448,-6.3518,-6.3626,-6.3696,-6.3808,-6.39,-6.408,-6.414,-6.4246,-6.4246,-6.4334,-6.4262,-6.4252,-6.4248,-6.4242,-6.4252,-6.4347,-6.4349,-6.4351,-6.4352,0,-6.3116,-6.3136,-6.3233,-6.3339,-6.342,-6.3505,-6.3588,-6.364,-6.3692,-6.377,-6.3886,-6.3957,-6.4099,-6.4211,-6.432,-6.4372,-6.4371,-6.4375,-6.44,-6.4394,-6.4374,-6.4386,-6.413,-6.4368,-6.4366,-6.4365,-6.4364,-6.4364,-6.3247,-6.3328,-6.3416,-6.3525,-6.3592,-6.367,-6.3752,-6.3805,-6.3902,-6.4021,-6.4038,-6.4162,-6.4248,-6.4395,-6.4452,-6.4549,-6.4527,-6.4563,-6.4573,-6.4581,-6.4587,-6.4359,-6.4569,-6.4569,-6.4568,-6.4568,-6.4568,0,-6.3439,-6.3496,-6.3595,-6.3712,-6.3798,-6.379,-6.3882,-6.3954,-6.4063,-6.4144,-6.4236,-6.4369,-6.4478,-6.4547,-6.4657,-6.4722,-6.4724,-6.4749,-6.4745,-6.4757,-6.4601,-6.4568,-6.4746,-6.4746,-6.4745,-6.4745,-6.4745,-6.4745,-6.3549,-6.3686,-6.3717,-6.3888,-6.3944,-6.4066,-6.412,-6.4192,-6.4257,-6.4406,-6.4497,-6.4541,-6.4618,-6.4734,-6.4833,-6.4851,-6.4891,-6.4918,-6.4934,-6.4786,-6.4768,-6.475,-6.472,-6.4926,-6.4927,-6.5082,-6.5084,-6.5085]}]]